Year,Month,Day,Hour,Minute,Value (Times are PST for temperature in C)
2012,09,19,00,00,11.00
2012,09,19,00,01,11.00
2012,09,19,00,02,11.00
2012,09,19,00,03,10.90
2012,09,19,00,04,10.90
2012,09,19,00,05,10.90
2012,09,19,00,06,10.90
2012,09,19,00,07,10.80
2012,09,19,00,08,10.80
2012,09,19,00,09,10.80
2012,09,19,00,10,10.80
2012,09,19,00,11,10.70
2012,09,19,00,12,10.60
2012,09,19,00,13,10.60
2012,09,19,00,14,10.60
2012,09,19,00,15,10.50
2012,09,19,00,16,10.40
2012,09,19,00,17,10.40
2012,09,19,00,18,10.40
2012,09,19,00,19,10.40
2012,09,19,00,20,10.30
2012,09,19,00,21,10.30
2012,09,19,00,22,10.30
2012,09,19,00,23,10.30
2012,09,19,00,24,10.30
2012,09,19,00,25,10.30
2012,09,19,00,26,10.30
2012,09,19,00,27,10.30
2012,09,19,00,28,10.30
2012,09,19,00,29,10.30
2012,09,19,00,30,10.30
2012,09,19,00,31,10.30
2012,09,19,00,32,10.30
2012,09,19,00,33,10.30
2012,09,19,00,34,10.30
2012,09,19,00,35,10.30
2012,09,19,00,36,10.40
2012,09,19,00,37,10.40
2012,09,19,00,38,10.40
2012,09,19,00,39,10.40
2012,09,19,00,40,10.40
2012,09,19,00,41,10.40
2012,09,19,00,42,10.40
2012,09,19,00,43,10.30
2012,09,19,00,44,10.30
2012,09,19,00,45,10.30
2012,09,19,00,46,10.30
2012,09,19,00,47,10.20
2012,09,19,00,48,10.20
2012,09,19,00,49,10.10
2012,09,19,00,50,10.10
2012,09,19,00,51,10.00
2012,09,19,00,52,10.00
2012,09,19,00,53,9.90
2012,09,19,00,54,9.90
2012,09,19,00,55,9.80
2012,09,19,00,56,9.80
2012,09,19,00,57,9.80
2012,09,19,00,58,9.70
2012,09,19,00,59,9.70
2012,09,19,01,00,9.70
2012,09,19,01,01,9.60
2012,09,19,01,02,9.60
2012,09,19,01,03,9.60
2012,09,19,01,04,9.60
2012,09,19,01,05,9.60
2012,09,19,01,06,9.60
2012,09,19,01,07,9.60
2012,09,19,01,08,9.60
2012,09,19,01,09,9.70
2012,09,19,01,10,9.70
2012,09,19,01,11,9.70
2012,09,19,01,12,9.70
2012,09,19,01,13,9.80
2012,09,19,01,14,9.80
2012,09,19,01,15,9.80
2012,09,19,01,16,9.80
2012,09,19,01,17,9.80
2012,09,19,01,18,9.80
2012,09,19,01,19,9.80
2012,09,19,01,20,9.80
2012,09,19,01,21,9.80
2012,09,19,01,22,9.70
2012,09,19,01,23,9.70
2012,09,19,01,24,9.70
2012,09,19,01,25,9.70
2012,09,19,01,26,9.70
2012,09,19,01,27,9.60
2012,09,19,01,28,9.60
2012,09,19,01,29,9.60
2012,09,19,01,30,9.60
2012,09,19,01,31,9.60
2012,09,19,01,32,9.60
2012,09,19,01,33,9.50
2012,09,19,01,34,9.50
2012,09,19,01,35,9.40
2012,09,19,01,36,9.40
2012,09,19,01,37,9.40
2012,09,19,01,38,9.40
2012,09,19,01,39,9.30
2012,09,19,01,40,9.30
2012,09,19,01,41,9.30
2012,09,19,01,42,9.30
2012,09,19,01,43,9.30
2012,09,19,01,44,9.20
2012,09,19,01,45,9.20
2012,09,19,01,46,9.20
2012,09,19,01,47,9.20
2012,09,19,01,48,9.10
2012,09,19,01,49,9.10
2012,09,19,01,50,9.10
2012,09,19,01,51,9.10
2012,09,19,01,52,9.10
2012,09,19,01,53,9.00
2012,09,19,01,54,9.00
2012,09,19,01,55,9.00
2012,09,19,01,56,8.90
2012,09,19,01,57,8.90
2012,09,19,01,58,8.90
2012,09,19,01,59,8.90
2012,09,19,02,00,8.90
2012,09,19,02,01,8.80
2012,09,19,02,02,8.80
2012,09,19,02,03,8.80
2012,09,19,02,04,8.80
2012,09,19,02,05,8.80
2012,09,19,02,06,8.80
2012,09,19,02,07,8.80
2012,09,19,02,08,8.80
2012,09,19,02,09,8.70
2012,09,19,02,10,8.70
2012,09,19,02,11,8.70
2012,09,19,02,12,8.70
2012,09,19,02,13,8.70
2012,09,19,02,14,8.70
2012,09,19,02,15,8.70
2012,09,19,02,16,8.70
2012,09,19,02,17,8.70
2012,09,19,02,18,8.70
2012,09,19,02,19,8.60
2012,09,19,02,20,8.60
2012,09,19,02,21,8.60
2012,09,19,02,22,8.60
2012,09,19,02,23,8.60
2012,09,19,02,24,8.60
2012,09,19,02,25,8.60
2012,09,19,02,26,8.60
2012,09,19,02,27,8.60
2012,09,19,02,28,8.60
2012,09,19,02,29,8.60
2012,09,19,02,30,8.60
2012,09,19,02,31,8.60
2012,09,19,02,32,8.60
2012,09,19,02,33,8.60
2012,09,19,02,34,8.60
2012,09,19,02,35,8.50
2012,09,19,02,36,8.50
2012,09,19,02,37,8.50
2012,09,19,02,38,8.50
2012,09,19,02,39,8.50
2012,09,19,02,40,8.40
2012,09,19,02,41,8.40
2012,09,19,02,42,8.40
2012,09,19,02,43,8.40
2012,09,19,02,44,8.40
2012,09,19,02,45,8.30
2012,09,19,02,46,8.30
2012,09,19,02,47,8.30
2012,09,19,02,48,8.30
2012,09,19,02,49,8.30
2012,09,19,02,50,8.30
2012,09,19,02,51,8.30
2012,09,19,02,52,8.20
2012,09,19,02,53,8.20
2012,09,19,02,54,8.20
2012,09,19,02,55,8.20
2012,09,19,02,56,8.20
2012,09,19,02,57,8.20
2012,09,19,02,58,8.20
2012,09,19,02,59,8.20
2012,09,19,03,00,8.20
2012,09,19,03,01,8.20
2012,09,19,03,02,8.20
2012,09,19,03,03,8.20
2012,09,19,03,04,8.10
2012,09,19,03,05,8.10
2012,09,19,03,06,8.10
2012,09,19,03,07,8.10
2012,09,19,03,08,8.10
2012,09,19,03,09,8.10
2012,09,19,03,10,8.10
2012,09,19,03,11,8.20
2012,09,19,03,12,8.20
2012,09,19,03,13,8.20
2012,09,19,03,14,8.30
2012,09,19,03,15,8.30
2012,09,19,03,16,8.30
2012,09,19,03,17,8.30
2012,09,19,03,18,8.40
2012,09,19,03,19,8.40
2012,09,19,03,20,8.40
2012,09,19,03,21,8.40
2012,09,19,03,22,8.40
2012,09,19,03,23,8.40
2012,09,19,03,24,8.30
2012,09,19,03,25,8.30
2012,09,19,03,26,8.20
2012,09,19,03,27,8.20
2012,09,19,03,28,8.20
2012,09,19,03,29,8.10
2012,09,19,03,30,8.10
2012,09,19,03,31,8.00
2012,09,19,03,32,8.00
2012,09,19,03,33,8.00
2012,09,19,03,34,7.90
2012,09,19,03,35,7.90
2012,09,19,03,36,7.90
2012,09,19,03,37,7.90
2012,09,19,03,38,7.80
2012,09,19,03,39,7.80
2012,09,19,03,40,7.80
2012,09,19,03,41,7.80
2012,09,19,03,42,7.80
2012,09,19,03,43,7.80
2012,09,19,03,44,7.80
2012,09,19,03,45,7.80
2012,09,19,03,46,7.70
2012,09,19,03,47,7.70
2012,09,19,03,48,7.70
2012,09,19,03,49,7.70
2012,09,19,03,50,7.70
2012,09,19,03,51,7.70
2012,09,19,03,52,7.70
2012,09,19,03,53,7.70
2012,09,19,03,54,7.70
2012,09,19,03,55,7.70
2012,09,19,03,56,7.70
2012,09,19,03,57,7.70
2012,09,19,03,58,7.70
2012,09,19,03,59,7.70
2012,09,19,04,00,7.60
2012,09,19,04,01,7.60
2012,09,19,04,02,7.60
2012,09,19,04,03,7.50
2012,09,19,04,04,7.50
2012,09,19,04,05,7.40
2012,09,19,04,06,7.40
2012,09,19,04,07,7.40
2012,09,19,04,08,7.50
2012,09,19,04,09,7.50
2012,09,19,04,10,7.60
2012,09,19,04,11,7.70
2012,09,19,04,12,7.70
2012,09,19,04,13,7.70
2012,09,19,04,14,7.80
2012,09,19,04,15,7.80
2012,09,19,04,16,7.80
2012,09,19,04,17,7.80
2012,09,19,04,18,7.80
2012,09,19,04,19,7.80
2012,09,19,04,20,7.80
2012,09,19,04,21,7.80
2012,09,19,04,22,7.80
2012,09,19,04,23,7.80
2012,09,19,04,24,7.80
2012,09,19,04,25,7.80
2012,09,19,04,26,7.70
2012,09,19,04,27,7.70
2012,09,19,04,28,7.70
2012,09,19,04,29,7.70
2012,09,19,04,30,7.70
2012,09,19,04,31,7.70
2012,09,19,04,32,7.70
2012,09,19,04,33,7.60
2012,09,19,04,34,7.60
2012,09,19,04,35,7.60
2012,09,19,04,36,7.50
2012,09,19,04,37,7.50
2012,09,19,04,38,7.40
2012,09,19,04,39,7.40
2012,09,19,04,40,7.40
2012,09,19,04,41,7.30
2012,09,19,04,42,7.30
2012,09,19,04,43,7.30
2012,09,19,04,44,7.20
2012,09,19,04,45,7.20
2012,09,19,04,46,7.20
2012,09,19,04,47,7.20
2012,09,19,04,48,7.20
2012,09,19,04,49,7.20
2012,09,19,04,50,7.20
2012,09,19,04,51,7.20
2012,09,19,04,52,7.20
2012,09,19,04,53,7.20
2012,09,19,04,54,7.20
2012,09,19,04,55,7.20
2012,09,19,04,56,7.20
2012,09,19,04,57,7.20
2012,09,19,04,58,7.20
2012,09,19,04,59,7.20
2012,09,19,05,00,7.30
2012,09,19,05,01,7.30
2012,09,19,05,02,7.30
2012,09,19,05,03,7.30
2012,09,19,05,04,7.30
2012,09,19,05,05,7.30
2012,09,19,05,06,7.30
2012,09,19,05,07,7.30
2012,09,19,05,08,7.30
2012,09,19,05,09,7.30
2012,09,19,05,10,7.30
2012,09,19,05,11,7.30
2012,09,19,05,12,7.30
2012,09,19,05,13,7.30
2012,09,19,05,14,7.30
2012,09,19,05,15,7.30
2012,09,19,05,16,7.30
2012,09,19,05,17,7.30
2012,09,19,05,18,7.30
2012,09,19,05,19,7.30
2012,09,19,05,20,7.40
2012,09,19,05,21,7.40
2012,09,19,05,22,7.40
2012,09,19,05,23,7.40
2012,09,19,05,24,7.40
2012,09,19,05,25,7.40
2012,09,19,05,26,7.30
2012,09,19,05,27,7.30
2012,09,19,05,28,7.30
2012,09,19,05,29,7.30
2012,09,19,05,30,7.30
2012,09,19,05,31,7.30
2012,09,19,05,32,7.20
2012,09,19,05,33,7.20
2012,09,19,05,34,7.20
2012,09,19,05,35,7.20
2012,09,19,05,36,7.20
2012,09,19,05,37,7.20
2012,09,19,05,38,7.20
2012,09,19,05,39,7.20
2012,09,19,05,40,7.20
2012,09,19,05,41,7.20
2012,09,19,05,42,7.20
2012,09,19,05,43,7.20
2012,09,19,05,44,7.20
2012,09,19,05,45,7.20
2012,09,19,05,46,7.10
2012,09,19,05,47,7.10
2012,09,19,05,48,7.00
2012,09,19,05,49,7.00
2012,09,19,05,50,7.00
2012,09,19,05,51,6.90
2012,09,19,05,52,6.90
2012,09,19,05,53,6.90
2012,09,19,05,54,6.90
2012,09,19,05,55,6.90
2012,09,19,05,56,6.90
2012,09,19,05,57,6.90
2012,09,19,05,58,6.90
2012,09,19,05,59,6.90
2012,09,19,06,00,6.90
2012,09,19,06,01,6.90
2012,09,19,06,02,6.90
2012,09,19,06,03,6.90
2012,09,19,06,04,6.90
2012,09,19,06,05,6.90
2012,09,19,06,06,7.00
2012,09,19,06,07,7.00
2012,09,19,06,08,7.00
2012,09,19,06,09,7.00
2012,09,19,06,10,7.00
2012,09,19,06,11,7.00
2012,09,19,06,12,7.10
2012,09,19,06,13,7.10
2012,09,19,06,14,7.10
2012,09,19,06,15,7.10
2012,09,19,06,16,7.10
2012,09,19,06,17,7.10
2012,09,19,06,18,7.10
2012,09,19,06,19,7.10
2012,09,19,06,20,7.10
2012,09,19,06,21,7.10
2012,09,19,06,22,7.00
2012,09,19,06,23,7.00
2012,09,19,06,24,7.00
2012,09,19,06,25,7.00
2012,09,19,06,26,6.90
2012,09,19,06,27,6.90
2012,09,19,06,28,6.90
2012,09,19,06,29,6.90
2012,09,19,06,30,6.90
2012,09,19,06,31,6.80
2012,09,19,06,32,6.80
2012,09,19,06,33,6.80
2012,09,19,06,34,6.80
2012,09,19,06,35,6.80
2012,09,19,06,36,6.80
2012,09,19,06,37,6.80
2012,09,19,06,38,6.80
2012,09,19,06,39,6.80
2012,09,19,06,40,6.80
2012,09,19,06,41,6.80
2012,09,19,06,42,6.80
2012,09,19,06,43,6.80
2012,09,19,06,44,6.70
2012,09,19,06,45,6.70
2012,09,19,06,46,6.70
2012,09,19,06,47,6.70
2012,09,19,06,48,6.60
2012,09,19,06,49,6.60
2012,09,19,06,50,6.60
2012,09,19,06,51,6.60
2012,09,19,06,52,6.50
2012,09,19,06,53,6.50
2012,09,19,06,54,6.40
2012,09,19,06,55,6.40
2012,09,19,06,56,6.40
2012,09,19,06,57,6.40
2012,09,19,06,58,6.40
2012,09,19,06,59,6.40
2012,09,19,08,10,9.20
2012,09,19,08,11,9.30
2012,09,19,08,12,9.40
2012,09,19,08,13,9.40
2012,09,19,08,14,9.50
2012,09,19,08,15,9.60
2012,09,19,08,16,9.60
2012,09,19,08,17,9.70
2012,09,19,08,18,9.80
2012,09,19,08,19,9.80
2012,09,19,08,20,9.90
2012,09,19,08,21,10.00
2012,09,19,08,22,10.10
2012,09,19,08,23,10.30
2012,09,19,08,24,10.40
2012,09,19,08,25,10.50
2012,09,19,08,26,10.70
2012,09,19,08,27,10.80
2012,09,19,08,28,10.80
2012,09,19,08,29,10.80
2012,09,19,08,30,10.80
2012,09,19,08,31,10.80
2012,09,19,08,32,10.70
2012,09,19,08,33,10.80
2012,09,19,08,34,10.80
2012,09,19,08,35,10.80
2012,09,19,08,36,10.80
2012,09,19,08,37,10.90
2012,09,19,08,38,11.00
2012,09,19,08,39,11.10
2012,09,19,08,40,11.10
2012,09,19,08,41,11.20
2012,09,19,08,42,11.30
2012,09,19,08,43,11.30
2012,09,19,08,44,11.40
2012,09,19,08,45,11.50
2012,09,19,08,46,11.60
2012,09,19,08,47,11.60
2012,09,19,08,48,11.70
2012,09,19,08,49,11.70
2012,09,19,08,50,11.80
2012,09,19,08,51,11.80
2012,09,19,08,52,11.90
2012,09,19,08,53,11.90
2012,09,19,08,54,12.00
2012,09,19,08,55,12.00
2012,09,19,08,56,12.00
2012,09,19,08,57,12.10
2012,09,19,08,58,12.10
2012,09,19,08,59,12.20
2012,09,19,09,00,12.20
2012,09,19,09,01,12.20
2012,09,19,09,02,12.30
2012,09,19,09,03,12.30
2012,09,19,09,04,12.40
2012,09,19,09,05,12.40
2012,09,19,09,06,12.50
2012,09,19,09,07,12.60
2012,09,19,09,08,12.60
2012,09,19,09,09,12.70
2012,09,19,09,10,12.80
2012,09,19,09,11,13.00
2012,09,19,09,12,13.10
2012,09,19,09,13,13.20
2012,09,19,09,14,13.40
2012,09,19,09,15,13.50
2012,09,19,09,16,13.60
2012,09,19,09,17,13.70
2012,09,19,09,18,13.80
2012,09,19,09,19,13.90
2012,09,19,09,20,13.90
2012,09,19,09,21,14.00
2012,09,19,09,22,14.20
2012,09,19,09,23,14.30
2012,09,19,09,24,14.40
2012,09,19,09,25,14.50
2012,09,19,09,26,14.60
2012,09,19,09,27,14.80
2012,09,19,09,28,15.00
2012,09,19,09,29,15.00
2012,09,19,09,30,15.00
2012,09,19,09,31,15.20
2012,09,19,09,32,15.40
2012,09,19,09,33,15.50
2012,09,19,09,34,15.60
2012,09,19,09,35,15.60
2012,09,19,09,36,15.70
2012,09,19,09,37,15.80
2012,09,19,09,38,16.00
2012,09,19,09,39,16.10
2012,09,19,09,40,16.20
2012,09,19,09,41,16.30
2012,09,19,09,42,16.30
2012,09,19,09,43,16.30
2012,09,19,09,44,16.30
2012,09,19,09,45,16.30
2012,09,19,09,46,16.40
2012,09,19,09,47,16.40
2012,09,19,09,48,16.40
2012,09,19,09,49,16.40
2012,09,19,09,50,16.50
2012,09,19,09,51,16.50
2012,09,19,09,52,16.60
2012,09,19,09,53,16.60
2012,09,19,09,54,16.60
2012,09,19,09,55,16.70
2012,09,19,09,56,16.70
2012,09,19,09,57,16.80
2012,09,19,09,58,16.90
2012,09,19,09,59,17.00
2012,09,19,10,00,17.10
2012,09,19,10,01,17.10
2012,09,19,10,02,17.10
2012,09,19,10,03,17.10
2012,09,19,10,04,16.90
2012,09,19,10,05,16.90
2012,09,19,10,06,16.80
2012,09,19,10,07,16.70
2012,09,19,10,08,16.70
2012,09,19,10,09,16.60
2012,09,19,10,10,16.60
2012,09,19,10,11,16.50
2012,09,19,10,12,16.50
2012,09,19,10,13,16.40
2012,09,19,10,14,16.40
2012,09,19,10,15,16.40
2012,09,19,10,16,16.30
2012,09,19,10,17,16.20
2012,09,19,10,18,16.10
2012,09,19,10,19,16.00
2012,09,19,10,20,15.90
2012,09,19,10,21,15.90
2012,09,19,10,22,15.80
2012,09,19,10,23,15.80
2012,09,19,10,24,15.80
2012,09,19,10,25,15.80
2012,09,19,10,26,15.70
2012,09,19,10,27,15.70
2012,09,19,10,28,15.70
2012,09,19,10,29,15.70
2012,09,19,10,30,15.70
2012,09,19,10,31,15.70
2012,09,19,10,32,15.70
2012,09,19,10,33,15.70
2012,09,19,10,34,15.70
2012,09,19,10,35,15.70
2012,09,19,10,36,15.60
2012,09,19,10,37,15.50
2012,09,19,10,38,15.50
2012,09,19,10,39,15.60
2012,09,19,10,40,15.70
2012,09,19,10,41,15.80
2012,09,19,10,42,16.00
2012,09,19,10,43,16.10
2012,09,19,10,44,16.10
2012,09,19,10,45,16.10
2012,09,19,10,46,16.20
2012,09,19,10,47,16.30
2012,09,19,10,48,16.30
2012,09,19,10,49,16.30
2012,09,19,10,50,16.30
2012,09,19,10,51,16.30
2012,09,19,10,52,16.40
2012,09,19,10,53,16.40
2012,09,19,10,54,16.50
2012,09,19,10,55,16.60
2012,09,19,10,56,16.60
2012,09,19,10,57,16.70
2012,09,19,10,58,16.70
2012,09,19,10,59,16.80
2012,09,19,11,00,16.90
2012,09,19,11,01,16.90
2012,09,19,11,02,17.00
2012,09,19,11,03,17.00
2012,09,19,11,04,17.10
2012,09,19,11,05,17.20
2012,09,19,11,06,17.20
2012,09,19,11,07,17.20
2012,09,19,11,08,17.20
2012,09,19,11,09,17.30
2012,09,19,11,10,17.30
2012,09,19,11,11,17.30
2012,09,19,11,12,17.30
2012,09,19,11,13,17.30
2012,09,19,11,14,17.40
2012,09,19,11,15,17.50
2012,09,19,11,16,17.70
2012,09,19,11,17,17.80
2012,09,19,11,18,17.90
2012,09,19,11,19,17.90
2012,09,19,11,20,17.90
2012,09,19,11,21,17.90
2012,09,19,11,22,18.00
2012,09,19,11,23,18.00
2012,09,19,11,24,18.00
2012,09,19,11,25,18.10
2012,09,19,11,26,18.00
2012,09,19,11,27,18.10
2012,09,19,11,28,18.20
2012,09,19,11,29,18.30
2012,09,19,11,30,18.30
2012,09,19,11,31,18.40
2012,09,19,11,32,18.40
2012,09,19,11,33,18.30
2012,09,19,11,34,18.40
2012,09,19,11,35,18.50
2012,09,19,11,36,18.60
2012,09,19,11,37,18.70
2012,09,19,11,38,18.80
2012,09,19,11,39,18.80
2012,09,19,11,40,18.80
2012,09,19,11,41,18.80
2012,09,19,11,42,18.80
2012,09,19,11,43,18.80
2012,09,19,11,44,18.70
2012,09,19,11,45,18.80
2012,09,19,11,46,18.90
2012,09,19,11,47,19.00
2012,09,19,11,48,19.10
2012,09,19,11,49,19.10
2012,09,19,11,50,19.20
2012,09,19,11,51,19.20
2012,09,19,11,52,19.10
2012,09,19,11,53,19.10
2012,09,19,11,54,19.10
2012,09,19,11,55,19.10
2012,09,19,11,56,19.10
2012,09,19,11,57,19.10
2012,09,19,11,58,19.10
2012,09,19,11,59,19.20
2012,09,19,12,00,19.20
2012,09,19,12,01,19.30
2012,09,19,12,02,19.30
2012,09,19,12,03,19.30
2012,09,19,12,04,19.40
2012,09,19,12,05,19.50
2012,09,19,12,06,19.60
2012,09,19,12,07,19.60
2012,09,19,12,08,19.60
2012,09,19,12,09,19.70
2012,09,19,12,10,19.80
2012,09,19,12,11,19.80
2012,09,19,12,12,19.80
2012,09,19,12,13,19.80
2012,09,19,12,14,19.80
2012,09,19,12,15,19.90
2012,09,19,12,16,19.90
2012,09,19,12,17,20.00
2012,09,19,12,18,19.90
2012,09,19,12,19,19.80
2012,09,19,12,20,19.80
2012,09,19,12,21,19.70
2012,09,19,12,22,19.70
2012,09,19,12,23,19.70
2012,09,19,12,24,19.80
2012,09,19,12,25,20.00
2012,09,19,12,26,20.00
2012,09,19,12,27,19.90
2012,09,19,12,28,19.90
2012,09,19,12,29,19.90
2012,09,19,12,30,19.90
2012,09,19,12,31,19.90
2012,09,19,12,32,20.00
2012,09,19,12,33,20.00
2012,09,19,12,34,20.10
2012,09,19,12,35,20.30
2012,09,19,12,36,20.40
2012,09,19,12,37,20.50
2012,09,19,12,38,20.50
2012,09,19,12,39,20.40
2012,09,19,12,40,20.30
2012,09,19,12,41,20.30
2012,09,19,12,42,20.40
2012,09,19,12,43,20.50
2012,09,19,12,44,20.50
2012,09,19,12,45,20.50
2012,09,19,12,46,20.50
2012,09,19,12,47,20.60
2012,09,19,12,48,20.60
2012,09,19,12,49,20.70
2012,09,19,12,50,20.70
2012,09,19,12,51,20.70
2012,09,19,12,52,20.70
2012,09,19,12,53,20.60
2012,09,19,12,54,20.60
2012,09,19,12,55,20.60
2012,09,19,12,56,20.70
2012,09,19,12,57,20.70
2012,09,19,12,58,20.70
2012,09,19,12,59,20.80
2012,09,19,13,00,20.90
2012,09,19,13,01,21.00
2012,09,19,13,02,21.00
2012,09,19,13,03,21.10
2012,09,19,13,04,21.10
2012,09,19,13,05,21.10
2012,09,19,13,06,21.10
2012,09,19,13,07,21.00
2012,09,19,13,08,21.00
2012,09,19,13,09,20.90
2012,09,19,13,10,20.80
2012,09,19,13,11,20.70
2012,09,19,13,12,20.70
2012,09,19,13,13,20.80
2012,09,19,13,14,20.80
2012,09,19,13,15,20.80
2012,09,19,13,16,20.70
2012,09,19,13,17,20.70
2012,09,19,13,18,20.60
2012,09,19,13,19,20.50
2012,09,19,13,20,20.50
2012,09,19,13,21,20.50
2012,09,19,13,22,20.50
2012,09,19,13,23,20.60
2012,09,19,13,24,20.60
2012,09,19,13,25,20.70
2012,09,19,13,26,20.80
2012,09,19,13,27,20.80
2012,09,19,13,28,20.90
2012,09,19,13,29,21.00
2012,09,19,13,30,21.00
2012,09,19,13,31,21.00
2012,09,19,13,32,21.00
2012,09,19,13,33,21.00
2012,09,19,13,34,21.00
2012,09,19,13,35,21.00
2012,09,19,13,36,21.10
2012,09,19,13,37,21.10
2012,09,19,13,38,21.20
2012,09,19,13,39,21.20
2012,09,19,13,40,21.10
2012,09,19,13,41,21.00
2012,09,19,13,42,20.80
2012,09,19,13,43,20.70
2012,09,19,13,44,20.60
2012,09,19,13,45,20.60
2012,09,19,13,46,20.70
2012,09,19,13,47,20.70
2012,09,19,13,48,20.70
2012,09,19,13,49,20.70
2012,09,19,13,50,20.70
2012,09,19,13,51,20.70
2012,09,19,13,52,20.80
2012,09,19,13,53,20.80
2012,09,19,13,54,20.90
2012,09,19,13,55,20.90
2012,09,19,13,56,20.80
2012,09,19,13,57,20.80
2012,09,19,13,58,20.80
2012,09,19,13,59,20.80
2012,09,19,14,00,20.80
2012,09,19,14,01,20.80
2012,09,19,14,02,20.90
2012,09,19,14,03,20.90
2012,09,19,14,04,21.00
2012,09,19,14,05,21.00
2012,09,19,14,06,21.00
2012,09,19,14,07,21.00
2012,09,19,14,08,21.00
2012,09,19,14,09,20.90
2012,09,19,14,10,20.90
2012,09,19,14,11,21.00
2012,09,19,14,12,21.00
2012,09,19,14,13,21.10
2012,09,19,14,14,21.10
2012,09,19,14,15,21.10
2012,09,19,14,16,21.10
2012,09,19,14,17,21.20
2012,09,19,14,18,21.30
2012,09,19,14,19,21.30
2012,09,19,14,20,21.30
2012,09,19,14,21,21.30
2012,09,19,14,22,21.20
2012,09,19,14,23,21.20
2012,09,19,14,24,21.20
2012,09,19,14,25,21.10
2012,09,19,14,26,21.00
2012,09,19,14,27,21.00
2012,09,19,14,28,20.90
2012,09,19,14,29,20.90
2012,09,19,14,30,20.90
2012,09,19,14,31,20.90
2012,09,19,14,32,20.80
2012,09,19,14,33,20.70
2012,09,19,14,34,20.70
2012,09,19,14,35,20.60
2012,09,19,14,36,20.60
2012,09,19,14,37,20.80
2012,09,19,14,38,20.90
2012,09,19,14,39,21.10
2012,09,19,14,40,21.10
2012,09,19,14,41,21.10
2012,09,19,14,42,21.10
2012,09,19,14,43,21.00
2012,09,19,14,44,21.00
2012,09,19,14,45,20.90
2012,09,19,14,46,21.00
2012,09,19,14,47,20.90
2012,09,19,14,48,20.80
2012,09,19,14,49,20.80
2012,09,19,14,50,20.80
2012,09,19,14,51,20.80
2012,09,19,14,52,20.80
2012,09,19,14,53,20.70
2012,09,19,14,54,20.70
2012,09,19,14,55,20.70
2012,09,19,14,56,20.70
2012,09,19,14,57,20.70
2012,09,19,14,58,20.70
2012,09,19,14,59,20.60
2012,09,19,15,00,20.50
2012,09,19,15,01,20.50
2012,09,19,15,02,20.50
2012,09,19,15,03,20.50
2012,09,19,15,04,20.60
2012,09,19,15,05,20.70
2012,09,19,15,06,20.80
2012,09,19,15,07,20.70
2012,09,19,15,08,20.70
2012,09,19,15,09,20.60
2012,09,19,15,10,20.60
2012,09,19,15,11,20.60
2012,09,19,15,12,20.60
2012,09,19,15,13,20.60
2012,09,19,15,14,20.60
2012,09,19,15,15,20.60
2012,09,19,15,16,20.70
2012,09,19,15,17,20.60
2012,09,19,15,18,20.60
2012,09,19,15,19,20.60
2012,09,19,15,20,20.70
2012,09,19,15,21,20.80
2012,09,19,15,22,20.70
2012,09,19,15,23,20.60
2012,09,19,15,24,20.40
2012,09,19,15,25,20.30
2012,09,19,15,26,20.20
2012,09,19,15,27,20.20
2012,09,19,15,28,20.20
2012,09,19,15,29,20.30
2012,09,19,15,30,20.30
2012,09,19,15,31,20.40
2012,09,19,15,32,20.40
2012,09,19,15,33,20.40
2012,09,19,15,34,20.40
2012,09,19,15,35,20.50
2012,09,19,15,36,20.60
2012,09,19,15,37,20.60
2012,09,19,15,38,20.70
2012,09,19,15,39,20.70
2012,09,19,15,40,20.70
2012,09,19,15,41,20.50
2012,09,19,15,42,20.50
2012,09,19,15,43,20.50
2012,09,19,15,44,20.70
2012,09,19,15,45,20.70
2012,09,19,15,46,20.60
2012,09,19,15,47,20.50
2012,09,19,15,48,20.40
2012,09,19,15,49,20.40
2012,09,19,15,50,20.30
2012,09,19,15,51,20.20
2012,09,19,15,52,20.20
2012,09,19,15,53,20.10
2012,09,19,15,54,20.10
2012,09,19,15,55,20.10
2012,09,19,15,56,20.20
2012,09,19,15,57,20.10
2012,09,19,15,58,20.10
2012,09,19,15,59,20.10
2012,09,19,16,00,20.10
2012,09,19,16,01,20.00
2012,09,19,16,02,19.90
2012,09,19,16,03,19.90
2012,09,19,16,04,19.90
2012,09,19,16,05,20.00
2012,09,19,16,06,20.00
2012,09,19,16,07,20.00
2012,09,19,16,08,20.00
2012,09,19,16,09,20.10
2012,09,19,16,10,20.20
2012,09,19,16,11,20.30
2012,09,19,16,12,20.30
2012,09,19,16,13,20.40
2012,09,19,16,14,20.50
2012,09,19,16,15,20.50
2012,09,19,16,16,20.50
2012,09,19,16,17,20.50
2012,09,19,16,18,20.50
2012,09,19,16,19,20.50
2012,09,19,16,20,20.50
2012,09,19,16,21,20.40
2012,09,19,16,22,20.50
2012,09,19,16,23,20.50
2012,09,19,16,24,20.50
2012,09,19,16,25,20.60
2012,09,19,16,26,20.60
2012,09,19,16,27,20.60
2012,09,19,16,28,20.70
2012,09,19,16,29,20.70
2012,09,19,16,30,20.70
2012,09,19,16,31,20.70
2012,09,19,16,32,20.60
2012,09,19,16,33,20.60
2012,09,19,16,34,20.50
2012,09,19,16,35,20.40
2012,09,19,16,36,20.40
2012,09,19,16,37,20.40
2012,09,19,16,38,20.40
2012,09,19,16,39,20.40
2012,09,19,16,40,20.50
2012,09,19,16,41,20.60
2012,09,19,16,42,20.70
2012,09,19,16,43,20.80
2012,09,19,16,44,20.80
2012,09,19,16,45,20.90
2012,09,19,16,46,21.00
2012,09,19,16,47,21.00
2012,09,19,16,48,21.10
2012,09,19,16,49,21.10
2012,09,19,16,50,21.00
2012,09,19,16,51,21.10
2012,09,19,16,52,21.10
2012,09,19,16,53,21.10
2012,09,19,16,54,21.10
2012,09,19,16,55,21.00
2012,09,19,16,56,20.90
2012,09,19,16,57,20.90
2012,09,19,16,58,20.90
2012,09,19,16,59,21.00
2012,09,19,17,00,21.00
2012,09,19,17,01,21.00
2012,09,19,17,02,21.00
2012,09,19,17,03,21.00
2012,09,19,17,04,21.00
2012,09,19,17,05,21.00
2012,09,19,17,06,21.10
2012,09,19,17,07,21.10
2012,09,19,17,08,21.00
2012,09,19,17,09,21.00
2012,09,19,17,10,21.00
2012,09,19,17,11,21.00
2012,09,19,17,12,21.00
2012,09,19,17,13,20.90
2012,09,19,17,14,20.80
2012,09,19,17,15,20.80
2012,09,19,17,16,20.80
2012,09,19,17,17,20.80
2012,09,19,17,18,20.80
2012,09,19,17,19,20.70
2012,09,19,17,20,20.70
2012,09,19,17,21,20.70
2012,09,19,17,22,20.70
2012,09,19,17,23,20.70
2012,09,19,17,24,20.60
2012,09,19,17,25,20.60
2012,09,19,17,26,20.60
2012,09,19,17,27,20.60
2012,09,19,17,28,20.60
2012,09,19,17,29,20.60
2012,09,19,17,30,20.60
2012,09,19,17,31,20.50
2012,09,19,17,32,20.50
2012,09,19,17,33,20.50
2012,09,19,17,34,20.50
2012,09,19,17,35,20.60
2012,09,19,17,36,20.60
2012,09,19,17,37,20.60
2012,09,19,17,38,20.60
2012,09,19,17,39,20.60
2012,09,19,17,40,20.50
2012,09,19,17,41,20.50
2012,09,19,17,42,20.50
2012,09,19,17,43,20.50
2012,09,19,17,44,20.60
2012,09,19,17,45,20.60
2012,09,19,17,46,20.60
2012,09,19,17,47,20.70
2012,09,19,17,48,20.70
2012,09,19,17,49,20.70
2012,09,19,17,50,20.70
2012,09,19,17,51,20.70
2012,09,19,17,52,20.70
2012,09,19,17,53,20.70
2012,09,19,17,54,20.70
2012,09,19,17,55,20.70
2012,09,19,17,56,20.70
2012,09,19,17,57,20.70
2012,09,19,17,58,20.80
2012,09,19,17,59,20.80
2012,09,19,18,00,20.80
2012,09,19,18,01,20.80
2012,09,19,18,02,20.80
2012,09,19,18,03,20.80
2012,09,19,18,04,20.80
2012,09,19,18,05,20.80
2012,09,19,18,06,20.90
2012,09,19,18,07,20.90
2012,09,19,18,08,20.90
2012,09,19,18,09,20.90
2012,09,19,18,10,20.90
2012,09,19,18,11,20.90
2012,09,19,18,12,20.90
2012,09,19,18,13,21.00
2012,09,19,18,14,21.00
2012,09,19,18,15,21.00
2012,09,19,18,16,21.10
2012,09,19,18,17,21.10
2012,09,19,18,18,21.10
2012,09,19,18,19,21.10
2012,09,19,18,20,21.10
2012,09,19,18,21,21.10
2012,09,19,18,22,21.20
2012,09,19,18,23,21.20
2012,09,19,18,24,21.20
2012,09,19,18,25,21.10
2012,09,19,18,26,21.20
2012,09,19,18,27,21.20
2012,09,19,18,28,21.20
2012,09,19,18,29,21.20
2012,09,19,18,30,21.20
2012,09,19,18,31,21.20
2012,09,19,18,32,21.20
2012,09,19,18,33,21.10
2012,09,19,18,34,21.00
2012,09,19,18,35,21.00
2012,09,19,18,36,20.90
2012,09,19,18,37,20.90
2012,09,19,18,38,20.80
2012,09,19,18,39,20.70
2012,09,19,18,40,20.70
2012,09,19,18,41,20.60
2012,09,19,18,42,20.60
2012,09,19,18,43,20.60
2012,09,19,18,44,20.50
2012,09,19,18,45,20.50